When you browse on this site, cookies collect data to enhance your experience and personalize the content and advertising you see.
Visit our Privacy Policy to learn more. By continuing to use the site, you agree to this use of cookies and data.
  • In Sweden
  • List of Countries
  • For 7 days
  • Water Temperature
  • Weather Map
  • Weather Widgets
  • user-avatar
    Login

    Hourly Weather Marywil

    Today, 22 August, Thursday

    Time Temperature Precipitation Wind Pressure Humidity
    00:00 +15°C° 0 mm 1 mps 763 mmHg 88%
    01:00 +15°C° 0 mm 1 mps 763 mmHg 89%
    02:00 +14°C° 0 mm 1 mps 763 mmHg 90%
    03:00 +14°C° 0 mm 1 mps 763 mmHg 91%
    04:00 +14°C° 0 mm 1 mps 762 mmHg 91%
    05:00 +15°C° 0 mm 1 mps 763 mmHg 88%
    06:00 +16°C° 0 mm 1 mps 763 mmHg 84%
    07:00 +18°C° 0 mm 1 mps 763 mmHg 81%
    08:00 +18°C° 0 mm 2 mps 763 mmHg 74%
    09:00 +20°C° 0 mm 2 mps 763 mmHg 67%
    10:00 +21°C° 0 mm 3 mps 763 mmHg 60%
    11:00 +22°C° 0 mm 3 mps 763 mmHg 56%
    12:00 +24°C° 0 mm 3 mps 763 mmHg 53%
    13:00 +24°C° 0 mm 3 mps 763 mmHg 49%
    14:00 +24°C° 0 mm 3 mps 762 mmHg 48%
    15:00 +24°C° 0 mm 3 mps 762 mmHg 48%
    16:00 +24°C° 0 mm 3 mps 762 mmHg 48%
    17:00 +22°C° 0 mm 3 mps 762 mmHg 53%
    18:00 +20°C° 0 mm 3 mps 762 mmHg 58%
    19:00 +19°C° 0 mm 2 mps 762 mmHg 63%
    20:00 +18°C° 0 mm 2 mps 762 mmHg 65%
    21:00 +17°C° 0 mm 2 mps 762 mmHg 67%
    22:00 +16°C° 0 mm 2 mps 762 mmHg 69%
    23:00 +16°C° 0 mm 2 mps 762 mmHg 70%

    Tomorrow, 23 August, Friday

    Time Temperature Precipitation Wind Pressure Humidity
    00:00 +16°C° 0 mm 2 mps 762 mmHg 71%
    01:00 +15°C° 0 mm 2 mps 762 mmHg 73%
    02:00 +15°C° 0 mm 2 mps 762 mmHg 75%
    03:00 +15°C° 0 mm 2 mps 762 mmHg 76%
    04:00 +14°C° 0 mm 2 mps 762 mmHg 78%
    05:00 +15°C° 0 mm 2 mps 762 mmHg 75%
    06:00 +16°C° 0 mm 3 mps 762 mmHg 73%
    07:00 +17°C° 0 mm 3 mps 762 mmHg 70%
    08:00 +19°C° 0 mm 3 mps 762 mmHg 64%
    09:00 +21°C° 0 mm 3 mps 762 mmHg 58%
    10:00 +23°C° 0 mm 4 mps 762 mmHg 52%
    11:00 +25°C° 0 mm 4 mps 762 mmHg 49%
    12:00 +26°C° 0 mm 4 mps 761 mmHg 46%
    13:00 +27°C° 0 mm 4 mps 761 mmHg 43%
    14:00 +27°C° 0 mm 4 mps 761 mmHg 43%
    15:00 +27°C° 0 mm 4 mps 761 mmHg 44%
    16:00 +27°C° 0 mm 4 mps 760 mmHg 45%
    17:00 +25°C° 0 mm 4 mps 760 mmHg 50%
    18:00 +22°C° 0 mm 3 mps 760 mmHg 55%
    19:00 +21°C° 0 mm 3 mps 760 mmHg 61%
    20:00 +20°C° 0 mm 3 mps 760 mmHg 63%
    21:00 +19°C° 0 mm 3 mps 760 mmHg 65%
    22:00 +18°C° 0 mm 3 mps 760 mmHg 67%
    23:00 +18°C° 0 mm 3 mps 760 mmHg 70%

    Day after tomorrow, 24 August, Saturday

    Time Temperature Precipitation Wind Pressure Humidity
    00:00 +18°C° 0 mm 3 mps 760 mmHg 72%
    01:00 +17°C° 0 mm 3 mps 760 mmHg 74%
    02:00 +17°C° 0 mm 3 mps 760 mmHg 75%
    03:00 +16°C° 0 mm 3 mps 760 mmHg 76%
    04:00 +16°C° 0 mm 3 mps 760 mmHg 77%
    05:00 +17°C° 0 mm 3 mps 759 mmHg 74%
    06:00 +18°C° 0 mm 4 mps 759 mmHg 72%
    07:00 +19°C° 0 mm 4 mps 759 mmHg 69%
    08:00 +20°C° 0 mm 4 mps 759 mmHg 64%
    09:00 +22°C° 0 mm 4 mps 759 mmHg 60%
    10:00 +25°C° 0 mm 4 mps 759 mmHg 55%
    11:00 +26°C° 0 mm 5 mps 759 mmHg 52%
    12:00 +27°C° 0 mm 5 mps 758 mmHg 50%
    13:00 +28°C° 0 mm 5 mps 758 mmHg 47%
    14:00 +28°C° 0 mm 5 mps 758 mmHg 48%
    15:00 +28°C° 0 mm 5 mps 758 mmHg 49%
    16:00 +28°C° 0 mm 5 mps 757 mmHg 50%
    17:00 +26°C° 0 mm 4 mps 757 mmHg 55%
    18:00 +25°C° 0 mm 4 mps 757 mmHg 61%
    19:00 +22°C° 0 mm 3 mps 757 mmHg 66%
    20:00 +21°C° 0 mm 3 mps 757 mmHg 68%
    21:00 +21°C° 0 mm 3 mps 757 mmHg 69%
    22:00 +20°C° 0 mm 3 mps 758 mmHg 71%
    23:00 +20°C° 0 mm 3 mps 757 mmHg 72%

    25 August, Sunday

    Time Temperature Precipitation Wind Pressure Humidity
    00:00 +19°C° 0 mm 3 mps 757 mmHg 73%
    01:00 +19°C° 0 mm 3 mps 757 mmHg 74%
    02:00 +18°C° 0 mm 3 mps 757 mmHg 74%
    03:00 +18°C° 0 mm 3 mps 757 mmHg 74%
    04:00 +18°C° 0 mm 3 mps 757 mmHg 74%
    05:00 +18°C° 0 mm 4 mps 757 mmHg 72%
    06:00 +19°C° 0 mm 4 mps 757 mmHg 71%
    07:00 +19°C° 0 mm 4 mps 757 mmHg 69%
    08:00 +21°C° 0 mm 5 mps 757 mmHg 64%
    09:00 +23°C° 0 mm 5 mps 757 mmHg 59%
    10:00 +25°C° 0 mm 5 mps 757 mmHg 54%
    11:00 +27°C° 0 mm 5 mps 757 mmHg 52%
    12:00 +28°C° 0 mm 5 mps 757 mmHg 50%
    13:00 +29°C° 0 mm 5 mps 757 mmHg 47%
    14:00 +29°C° 0 mm 5 mps 757 mmHg 48%
    15:00 +29°C° 0 mm 5 mps 757 mmHg 48%
    16:00 +29°C° 0 mm 5 mps 757 mmHg 49%
    17:00 +27°C° 0.1 mm 5 mps 757 mmHg 54%
    18:00 +26°C° 0.1 mm 4 mps 757 mmHg 59%
    19:00 +23°C° 0.1 mm 4 mps 757 mmHg 64%
    20:00 +22°C° 0.1 mm 4 mps 757 mmHg 65%
    21:00 +22°C° 0.1 mm 4 mps 757 mmHg 66%
    22:00 +21°C° 0.1 mm 4 mps 757 mmHg 68%
    23:00 +21°C° 0 mm 4 mps 757 mmHg 69%

    26 August, Monday

    Time Temperature Precipitation Wind Pressure Humidity
    00:00 +20°C° 0 mm 4 mps 757 mmHg 71%
    01:00 +20°C° 0 mm 4 mps 757 mmHg 72%
    02:00 +19°C° 0 mm 4 mps 757 mmHg 74%
    03:00 +19°C° 0 mm 4 mps 757 mmHg 76%
    04:00 +18°C° 0 mm 4 mps 757 mmHg 78%
    05:00 +19°C° 0 mm 4 mps 757 mmHg 77%
    06:00 +20°C° 0 mm 4 mps 757 mmHg 76%
    07:00 +21°C° 0 mm 4 mps 757 mmHg 74%
    08:00 +23°C° 0 mm 4 mps 757 mmHg 69%
    09:00 +26°C° 0 mm 5 mps 757 mmHg 64%
    10:00 +28°C° 0 mm 5 mps 757 mmHg 59%
    11:00 +29°C° 0 mm 5 mps 757 mmHg 54%
    12:00 +30°C° 0 mm 5 mps 757 mmHg 50%
    13:00 +32°C° 0 mm 5 mps 757 mmHg 46%
    14:00 +32°C° 0 mm 4 mps 757 mmHg 46%
    15:00 +32°C° 0 mm 4 mps 757 mmHg 47%
    16:00 +32°C° 0 mm 4 mps 756 mmHg 47%
    17:00 +29°C° 0 mm 4 mps 756 mmHg 53%
    18:00 +27°C° 0 mm 4 mps 756 mmHg 59%
    19:00 +26°C° 0 mm 4 mps 756 mmHg 65%
    20:00 +25°C° 0 mm 4 mps 756 mmHg 67%
    21:00 +23°C° 0 mm 4 mps 757 mmHg 70%
    22:00 +22°C° 0 mm 4 mps 757 mmHg 73%
    23:00 +22°C° 0 mm 3 mps 757 mmHg 76%

    27 August, Tuesday

    Time Temperature Precipitation Wind Pressure Humidity
    00:00 +21°C° 0 mm 3 mps 756 mmHg 79%
    01:00 +21°C° 0 mm 3 mps 756 mmHg 82%
    02:00 +21°C° 0 mm 2 mps 756 mmHg 82%
    03:00 +20°C° 0 mm 2 mps 756 mmHg 83%
    04:00 +20°C° 0 mm 2 mps 756 mmHg 84%
    05:00 +21°C° 0 mm 2 mps 756 mmHg 81%
    06:00 +21°C° 0 mm 2 mps 756 mmHg 78%
    07:00 +23°C° 0 mm 2 mps 756 mmHg 76%
    08:00 +25°C° 0 mm 3 mps 756 mmHg 70%
    09:00 +26°C° 0 mm 3 mps 756 mmHg 64%
    10:00 +28°C° 0 mm 3 mps 756 mmHg 58%
    11:00 +29°C° 0 mm 3 mps 756 mmHg 56%
    12:00 +29°C° 0 mm 2 mps 756 mmHg 54%
    13:00 +30°C° 0 mm 2 mps 756 mmHg 52%
    14:00 +30°C° 0 mm 2 mps 755 mmHg 53%
    15:00 +30°C° 0 mm 1 mps 755 mmHg 54%
    16:00 +29°C° 0 mm 1 mps 755 mmHg 55%
    17:00 +28°C° 0.2 mm 1 mps 755 mmHg 59%
    18:00 +27°C° 0.2 mm 2 mps 755 mmHg 63%
    19:00 +25°C° 0.2 mm 2 mps 754 mmHg 67%
    20:00 +25°C° 0.2 mm 2 mps 755 mmHg 71%
    21:00 +24°C° 0.2 mm 2 mps 755 mmHg 74%
    22:00 +22°C° 0.2 mm 3 mps 755 mmHg 78%
    23:00 +22°C° 0 mm 3 mps 755 mmHg 80%
    Show more